STARLINK-1336, 45557

Orbit data source: Space-Track

STARLINK-1336, 45557 is a payload satellite owned by SpaceX/Seattle (US) in LEO that was launched on Wed, 22 Apr 2020 UTC via an FALCON 9 launch vehicle from the Air Force Eastern Test Range (AFETR). Payload-class satellites include a variety of spacecraft equipped with specific instruments for various scientific and technological missions. These include communications satellites like Starlink; space stations such as the ISS; scientific satellites like the Hubble; Earth observation satellites from companies like Planet Labs, Umbra, and HawkEye 360; GPS; miniature CubeSats for education and research; and military/defense satellites.

Loading next visibility...
Identifier
45557, 2020-025AC
Orbit
LEO
Country
Flag of USUS
Related business
Manufacturer
SpaceX/Seattle
Mission
Partially operational Commercial Communications
Bus & Motor
STARLINK, Unknown motor
Mass
260 kg wet, ~248 kg dry
Launch date (UTC)
2020-04-22 (5 years ago)
Launch vehicle
FALCON 9
Launch site
Air Force Eastern Test Range (AFETR)
Object type
Payload
Rocket body
Debris
Shape & HBR
Box + 1 Pan, 4.4 m
Radar Cross Section
13.562 m², Large (>1 m²)

Expand to show TLE details & history
Last TLE update: 7 hours ago

TLE from 7 hours ago
0 STARLINK-1336
1 45557U 20025AC  25261.25011574  .00180830  00000-0  82382-3 0  9992
2 45557  53.0397  98.1479 0007657 106.4742 340.1699 15.82754873  6033
Epoch: 2025-09-18T06:00Z
TLE epoch observation values (Epoch: 2025-09-18T06:00:09.999Z)
Latitude
53.06247°
Longitude
95.06577°
Altitude
324.306 km
Speed
7.723 km/s
True Right ascension
12h 10m 05s
True Declination
52° 53' 11"
Sunlit
Object was in daylight at epoch
Visualization orbit readout
Latitude
Unknown
Longitude
Unknown
Altitude
Unknown
Speed
Unknown
Apparent Right ascension
Unknown
Apparent Declination
Unknown
Sunlit
N/A
Visualization observer readout
Local Sidereal Time
05:34:42
Azimuth
Unknown
Elevation
Unknown
Doppler factor
Unknown
Orbital elements
Apogee altitude
328.067 km
Perigee altitude
317.805 km
Semi-major axis
6,701.073 km
Eccentricity
0.00077
Inclination
53.0397°
RAAN
98.1479°
Arg. of periapsis
106.4742°
True anomaly
340.14011°
Mean anomaly
340.1699°
Eccentric anomaly
340.15501°
Mean motion
3.95664 °/min
Orbital period
90.99 mins
BSTAR
0.00082382
Loading maneuver chart data...
Computing Atmospheric mass density...
Loading historical data...
Loading historical data...
Loading historical data...
Loading historical data...
Loading historical data...
Loading historical data...
Loading historical data...

Documentation

Showing up to 5 results
|